User: anonymous   Login
Location: Unspecified
(0.0000°N, 0.0000°E)
Time: 19:07:22
(UTC+00:00)
Language:

Milstar DFS 2 - Orbit

View from above orbital plane
View from above orbital plane
View from above satellite
View from above satellite

Ground track
Ground track

The orbit data is extracted from the following two-line orbital elements,

1 23712U 95060A   20046.55448689 -.00000213 +00000-0 +00000-0 0  9993
2 23712 013.1464 020.9644 0002777 345.2847 248.3829 01.00273002009715
Epoch (UTC): 15 February 2020 13:18:27
Eccentricity: 0.0002777
inclination: 13.1464°
perigee height: 35774 km
apogee height: 35797 km
right ascension of ascending node: 20.9644°
argument of perigee: 345.2847°
revolutions per day: 1.00273002
mean anomaly at epoch: 248.3829°
orbit number at epoch: 971

The dashed part of the orbit path shows where the satellite is in the earth's shadow,  

DLR